Creek Data

    Home     View Charts     View Raw Data     Messages

ID Distance Battery Voltage Battery Current Internal Temp Internal Humidity External Temp Solar Input rssi snr Time Stamp Record
68213 14.8 3.74 5 72 48 69 5.1 -74 7 03/07/2026 11:00 AM 51078
68212 14.9 4.04 5 70 47 68 5.1 -73 8 03/07/2026 10:45 AM 51077
68211 14.9 3.72 5 69 48 66 5.1 -75 8 03/07/2026 10:30 AM 51076
68210 14.9 3.72 5 67 48 65 5.1 -74 7 03/07/2026 10:15 AM 51075
68209 14.9 3.96 5 65 48 64 5.1 -74 8 03/07/2026 10:00 AM 51074
68208 14.9 3.88 5 63 48 63 5.1 -72 8 03/07/2026 09:45 AM 51073
68207 14.9 3.72 5 62 48 61 5.1 -73 8 03/07/2026 09:30 AM 51072
68206 14.9 3.89 5 60 48 60 5.1 -74 8 03/07/2026 09:15 AM 51071
68205 14.9 3.71 0 59 48 59 5.1 -75 7 03/07/2026 09:00 AM 51070
68204 14.8 3.90 5 58 49 58 5.1 -75 8 03/07/2026 08:45 AM 51069
68203 14.8 3.73 6 56 49 57 5.1 -73 7 03/07/2026 08:30 AM 51068
68202 14.8 3.72 0 55 49 56 5.1 -74 8 03/07/2026 08:15 AM 51067
68201 14.7 3.95 6 54 49 56 5.1 -73 8 03/07/2026 08:00 AM 51066
68200 14.7 3.96 6 52 49 54 5.1 -74 8 03/07/2026 07:45 AM 51065
68199 14.7 3.98 57 51 50 52 4.5 -72 8 03/07/2026 07:30 AM 51064
68198 14.7 3.85 36 49 51 51 4.5 -74 7 03/07/2026 07:15 AM 51063
68197 14.7 3.71 12 48 51 50 4.5 -74 9 03/07/2026 07:00 AM 51062
68196 14.7 3.78 8 48 51 49 4.5 -76 9 03/07/2026 06:45 AM 51061
68195 14.7 3.50 -8 48 51 49 1.8 -74 8 03/07/2026 06:30 AM 51060
68194 14.7 3.51 -5 49 51 50 0.9 -74 8 03/07/2026 06:15 AM 51059
68193 14.7 3.50 -5 49 51 50 0 -72 8 03/07/2026 06:00 AM 51058
68192 14.7 3.70 -5 48 51 50 0 -74 9 03/07/2026 05:45 AM 51057
68191 14.7 3.52 -5 49 51 50 0 -74 9 03/07/2026 05:30 AM 51056
68190 14.7 3.53 -5 49 51 51 0 -73 9 03/07/2026 05:15 AM 51055
68189 14.7 3.49 -5 49 51 52 0 -75 9 03/07/2026 05:00 AM 51054